When you browse on this site, cookies collect data to enhance your experience and personalize the content and advertising you see.
Visit our Privacy Policy to learn more. By continuing to use the site, you agree to this use of cookies and data.
  • In Switzerland
  • List of Countries
  • For 7 days
  • Water Temperature
  • Satellite Maps
  • Weather Map
  • Weather Widgets
  • user-avatar
    Login

    Hourly Weather Xiyan

    Today, 18 July, Thursday

    Time Temperature Precipitation Wind Pressure Humidity
    00:00 +25°C° 0 mm 0 mps 718 mmHg 92%
    01:00 +24°C° 0 mm 0 mps 718 mmHg 93%
    02:00 +24°C° 0 mm 0 mps 718 mmHg 93%
    03:00 +24°C° 0 mm 0 mps 718 mmHg 93%
    04:00 +24°C° 0 mm 0 mps 718 mmHg 94%
    05:00 +25°C° 0.1 mm 0 mps 718 mmHg 92%
    06:00 +26°C° 0.1 mm 0 mps 719 mmHg 90%
    07:00 +27°C° 0.1 mm 0 mps 719 mmHg 88%
    08:00 +29°C° 0.6 mm 0 mps 719 mmHg 83%
    09:00 +30°C° 0.6 mm 0 mps 719 mmHg 79%
    10:00 +32°C° 0.6 mm 0 mps 719 mmHg 75%
    11:00 +34°C° 0.6 mm 1 mps 718 mmHg 71%
    12:00 +35°C° 0.6 mm 1 mps 718 mmHg 68%
    13:00 +35°C° 0.6 mm 1 mps 717 mmHg 65%
    14:00 +34°C° 0.5 mm 1 mps 717 mmHg 68%
    15:00 +34°C° 0.5 mm 1 mps 717 mmHg 72%
    16:00 +34°C° 0.5 mm 2 mps 716 mmHg 76%
    17:00 +32°C° 0.6 mm 1 mps 716 mmHg 82%
    18:00 +30°C° 0.6 mm 1 mps 716 mmHg 88%
    19:00 +29°C° 0.6 mm 1 mps 717 mmHg 94%
    20:00 +28°C° 0.2 mm 1 mps 717 mmHg 94%
    21:00 +28°C° 0.2 mm 1 mps 718 mmHg 95%
    22:00 +28°C° 0.2 mm 1 mps 718 mmHg 96%
    23:00 +28°C° 0 mm 1 mps 718 mmHg 96%

    Tomorrow, 19 July, Friday

    Time Temperature Precipitation Wind Pressure Humidity
    00:00 +25°C° 0 mm 0 mps 718 mmHg 96%
    01:00 +25°C° 0 mm 0 mps 717 mmHg 97%
    02:00 +25°C° 0.2 mm 0 mps 717 mmHg 97%
    03:00 +25°C° 0.2 mm 0 mps 717 mmHg 97%
    04:00 +25°C° 0.2 mm 0 mps 717 mmHg 97%
    05:00 +25°C° 0.4 mm 0 mps 718 mmHg 96%
    06:00 +26°C° 0.4 mm 0 mps 718 mmHg 95%
    07:00 +29°C° 0.4 mm 1 mps 719 mmHg 94%
    08:00 +30°C° 1.7 mm 1 mps 719 mmHg 92%
    09:00 +30°C° 1.7 mm 1 mps 719 mmHg 89%
    10:00 +31°C° 1.7 mm 1 mps 719 mmHg 87%
    11:00 +32°C° 2 mm 1 mps 719 mmHg 86%
    12:00 +32°C° 2 mm 1 mps 718 mmHg 85%
    13:00 +32°C° 2 mm 1 mps 718 mmHg 83%
    14:00 +32°C° 1.3 mm 1 mps 718 mmHg 84%
    15:00 +31°C° 1.3 mm 1 mps 717 mmHg 85%
    16:00 +29°C° 1.3 mm 0 mps 717 mmHg 86%
    17:00 +30°C° 1.1 mm 1 mps 717 mmHg 88%
    18:00 +29°C° 1.1 mm 1 mps 717 mmHg 90%
    19:00 +28°C° 1.1 mm 1 mps 718 mmHg 92%
    20:00 +28°C° 0.3 mm 1 mps 718 mmHg 92%
    21:00 +27°C° 0.3 mm 1 mps 718 mmHg 91%
    22:00 +27°C° 0.3 mm 1 mps 719 mmHg 91%
    23:00 +27°C° 0.2 mm 1 mps 719 mmHg 90%

    Day after tomorrow, 20 July, Saturday

    Time Temperature Precipitation Wind Pressure Humidity
    00:00 +25°C° 0.2 mm 0 mps 718 mmHg 90%
    01:00 +24°C° 0.2 mm 0 mps 718 mmHg 90%
    02:00 +24°C° 0.1 mm 0 mps 718 mmHg 90%
    03:00 +24°C° 0.1 mm 0 mps 718 mmHg 90%
    04:00 +24°C° 0.1 mm 0 mps 718 mmHg 90%
    05:00 +25°C° 0 mm 0 mps 719 mmHg 89%
    06:00 +26°C° 0 mm 0 mps 719 mmHg 87%
    07:00 +27°C° 0 mm 0 mps 720 mmHg 86%
    08:00 +29°C° 0.3 mm 0 mps 720 mmHg 80%
    09:00 +31°C° 0.3 mm 0 mps 720 mmHg 74%
    10:00 +33°C° 0.3 mm 0 mps 720 mmHg 67%
    11:00 +34°C° 0.3 mm 0 mps 719 mmHg 63%
    12:00 +34°C° 0.3 mm 0 mps 719 mmHg 59%
    13:00 +35°C° 0.3 mm 0 mps 719 mmHg 55%
    14:00 +34°C° 1.7 mm 0 mps 718 mmHg 65%
    15:00 +33°C° 1.7 mm 0 mps 717 mmHg 74%
    16:00 +31°C° 1.7 mm 0 mps 717 mmHg 84%
    17:00 +30°C° 0.4 mm 0 mps 717 mmHg 86%
    18:00 +29°C° 0.4 mm 0 mps 717 mmHg 88%
    19:00 +27°C° 0.4 mm 0 mps 717 mmHg 90%
    20:00 +27°C° 0 mm 0 mps 718 mmHg 91%
    21:00 +28°C° 0 mm 1 mps 718 mmHg 92%
    22:00 +28°C° 0 mm 1 mps 718 mmHg 93%
    23:00 +28°C° 0 mm 1 mps 718 mmHg 93%

    21 July, Sunday

    Time Temperature Precipitation Wind Pressure Humidity
    00:00 +27°C° 0 mm 1 mps 718 mmHg 94%
    01:00 +27°C° 0 mm 1 mps 718 mmHg 94%
    02:00 +27°C° 0 mm 1 mps 718 mmHg 94%
    03:00 +27°C° 0 mm 1 mps 718 mmHg 94%
    04:00 +27°C° 0 mm 1 mps 718 mmHg 93%
    05:00 +27°C° 0 mm 1 mps 718 mmHg 92%
    06:00 +28°C° 0 mm 1 mps 718 mmHg 90%
    07:00 +29°C° 0 mm 1 mps 719 mmHg 88%
    08:00 +31°C° 0 mm 1 mps 719 mmHg 78%
    09:00 +33°C° 0 mm 1 mps 719 mmHg 68%
    10:00 +36°C° 0 mm 2 mps 719 mmHg 58%
    11:00 +36°C° 0.1 mm 1 mps 719 mmHg 55%
    12:00 +37°C° 0.1 mm 1 mps 718 mmHg 52%
    13:00 +39°C° 0.1 mm 1 mps 718 mmHg 49%
    14:00 +37°C° 0.5 mm 1 mps 718 mmHg 57%
    15:00 +36°C° 0.5 mm 1 mps 717 mmHg 64%
    16:00 +35°C° 0.5 mm 1 mps 717 mmHg 72%
    17:00 +33°C° 0.6 mm 1 mps 717 mmHg 78%
    18:00 +31°C° 0.6 mm 1 mps 717 mmHg 84%
    19:00 +29°C° 0.6 mm 1 mps 717 mmHg 90%
    20:00 +29°C° 0 mm 1 mps 718 mmHg 91%
    21:00 +28°C° 0 mm 1 mps 718 mmHg 93%
    22:00 +28°C° 0 mm 1 mps 718 mmHg 94%
    23:00 +27°C° 0 mm 1 mps 718 mmHg 94%

    22 July, Monday

    Time Temperature Precipitation Wind Pressure Humidity
    00:00 +27°C° 0 mm 1 mps 718 mmHg 95%
    01:00 +27°C° 0 mm 1 mps 718 mmHg 95%
    02:00 +27°C° 0 mm 1 mps 718 mmHg 95%
    03:00 +27°C° 0 mm 1 mps 717 mmHg 95%
    04:00 +27°C° 0 mm 1 mps 717 mmHg 94%
    05:00 +27°C° 0 mm 1 mps 718 mmHg 92%
    06:00 +28°C° 0 mm 1 mps 718 mmHg 90%
    07:00 +29°C° 0 mm 1 mps 718 mmHg 88%
    08:00 +31°C° 0 mm 1 mps 718 mmHg 78%
    09:00 +33°C° 0 mm 1 mps 719 mmHg 68%
    10:00 +35°C° 0 mm 1 mps 719 mmHg 58%
    11:00 +37°C° 0 mm 2 mps 718 mmHg 55%
    12:00 +37°C° 0 mm 2 mps 718 mmHg 53%
    13:00 +38°C° 0 mm 2 mps 717 mmHg 51%
    14:00 +37°C° 0.5 mm 2 mps 717 mmHg 58%
    15:00 +35°C° 0.5 mm 1 mps 717 mmHg 64%
    16:00 +34°C° 0.5 mm 1 mps 716 mmHg 71%
    17:00 +33°C° 0.7 mm 1 mps 716 mmHg 78%
    18:00 +31°C° 0.7 mm 1 mps 716 mmHg 84%
    19:00 +29°C° 0.7 mm 1 mps 717 mmHg 91%
    20:00 +28°C° 0 mm 1 mps 717 mmHg 92%
    21:00 +28°C° 0 mm 1 mps 717 mmHg 93%
    22:00 +27°C° 0 mm 1 mps 718 mmHg 94%
    23:00 +27°C° 0 mm 1 mps 717 mmHg 94%

    23 July, Tuesday

    Time Temperature Precipitation Wind Pressure Humidity
    00:00 +27°C° 0 mm 1 mps 717 mmHg 94%
    01:00 +26°C° 0 mm 2 mps 717 mmHg 94%
    02:00 +26°C° 0 mm 1 mps 717 mmHg 94%
    03:00 +26°C° 0 mm 1 mps 717 mmHg 94%
    04:00 +26°C° 0 mm 1 mps 717 mmHg 94%
    05:00 +27°C° 0 mm 1 mps 717 mmHg 92%
    06:00 +28°C° 0 mm 1 mps 718 mmHg 90%
    07:00 +29°C° 0 mm 1 mps 718 mmHg 89%
    08:00 +30°C° 0 mm 1 mps 718 mmHg 80%
    09:00 +32°C° 0 mm 1 mps 718 mmHg 70%
    10:00 +34°C° 0 mm 1 mps 719 mmHg 61%
    11:00 +35°C° 0 mm 1 mps 718 mmHg 59%
    12:00 +36°C° 0 mm 1 mps 718 mmHg 56%
    13:00 +37°C° 0 mm 1 mps 717 mmHg 54%
    14:00 +36°C° 0.2 mm 1 mps 717 mmHg 59%
    15:00 +35°C° 0.2 mm 1 mps 716 mmHg 64%
    16:00 +35°C° 0.2 mm 2 mps 716 mmHg 69%
    17:00 +32°C° 0.5 mm 1 mps 716 mmHg 76%
    18:00 +31°C° 0.5 mm 1 mps 716 mmHg 83%
    19:00 +29°C° 0.5 mm 1 mps 717 mmHg 90%
    20:00 +28°C° 0 mm 1 mps 717 mmHg 91%
    21:00 +27°C° 0 mm 1 mps 717 mmHg 92%
    22:00 +27°C° 0 mm 2 mps 718 mmHg 93%
    23:00 +27°C° 0 mm 1 mps 718 mmHg 93%
    Show more